User: anonymous
Location: Vancouver
(49.2500°N, 123.1330°W)
Time: 06:40:30
(UTC-07:00)
Language:

SO-67 - Orbit

View from above orbital plane
View from above orbital plane
View from above satellite
View from above satellite

Ground track
Ground track

The orbit data is extracted from the following two-line orbital elements,

1 35870U 09049F   14206.11235627  .00003107  00000-0  98319-4 0  3635
2 35870 097.1592 226.1771 0001367 055.2300 029.6047 15.33489630269867
Epoch (UTC): 25 July 2014 02:41:47
Eccentricity: 0.0001367
inclination: 97.1592°
perigee height: 464 km
apogee height: 466 km
right ascension of ascending node: 226.1771°
argument of perigee: 55.2300°
revolutions per day: 15.33489630
mean anomaly at epoch: 29.6047°
orbit number at epoch: 26986

The dashed part of the orbit path shows where the satellite is in the earth's shadow,  

DLR